UFO 10 (USA 146)        
1 25967U 99063A   19259.33319493 -.00000186  00000-0  00000+0 0  9992
2 25967   7.5588  36.4255 0002835  85.5325 330.6029  1.00267226 72610
ATLAS 2A CENTAUR R/B    
1 25968U 99063B   19259.07665899  .00036601  00000-0  91291-3 0  9994
2 25968  26.8315 220.1821 5334681 302.3247  16.7715  5.18010154289825